Language: 


Des rapports , des résumés tant et plus, au choix de chacun....


Données statistiques de la station
Quotidien Rapport Novembre 22, 2017 Unités:  Métrique    Anglais   les deux
« Précédent Jour
Suivant Jour »
Quotidien Hebdomadaire Mensuel Annuel Actuel
  Haut: Bas: Moyen:
Température: 14.9 °C 10.2 °C 11.7 °C
Pt de rosée: 11.0 °C 6.0 °C 8.8 °C
Humidité: 95 % 66 % 82 %
Vitesse du vent: 27.4 km/h 1.4 km/h 13.9 km/h
Rafales: 37.5 km/h - -
Vent:- - SSW
Pression: 1010.0 hPa 997.9 hPa -
Précipitation: 0.0 mm    
Historical Graphs
 
 
Données statistiques pour Novembre 22, 2017
Heure Température Point de rosée Pression Vent Vitesse du vent Refales Humidité Pluie (taux horaire)
00:04 11.4 °C 10.0 °C 1010.0 hPa SSW 16.3 km/h 19.1 km/h 91 % 0.0 mm
00:09 11.4 °C 10.0 °C 1010.0 hPa SW 12.6 km/h 18.0 km/h 91 % 0.0 mm
00:14 11.4 °C 10.0 °C 1010.0 hPa SSW 11.6 km/h 19.5 km/h 91 % 0.0 mm
00:19 11.5 °C 10.0 °C 1010.0 hPa SSW 11.9 km/h 19.5 km/h 91 % 0.0 mm
00:24 11.5 °C 10.0 °C 1010.0 hPa SW 17.7 km/h 19.5 km/h 90 % 0.0 mm
00:29 11.6 °C 10.0 °C 1009.0 hPa SSW 10.5 km/h 19.8 km/h 90 % 0.0 mm
00:34 11.6 °C 10.0 °C 1009.0 hPa SSW 12.2 km/h 20.9 km/h 89 % 0.0 mm
00:39 11.6 °C 10.0 °C 1009.0 hPa South 17.2 km/h 20.9 km/h 89 % 0.0 mm
00:41 11.7 °C 10.0 °C 1009.0 hPa SSW 20.6 km/h 23.8 km/h 89 % 0.0 mm
00:57 11.7 °C 10.0 °C 1009.0 hPa SSW 12.6 km/h 17.7 km/h 89 % 0.0 mm
01:02 11.7 °C 10.0 °C 1009.0 hPa South 15.4 km/h 17.2 km/h 89 % 0.0 mm
01:12 11.7 °C 10.0 °C 1009.0 hPa SSW 14.0 km/h 17.2 km/h 89 % 0.0 mm
01:27 11.7 °C 10.0 °C 1009.0 hPa SSW 9.3 km/h 15.8 km/h 89 % 0.0 mm
01:32 11.6 °C 10.0 °C 1009.0 hPa SSW 6.4 km/h 10.1 km/h 89 % 0.0 mm
01:37 11.5 °C 10.0 °C 1009.0 hPa SSW 6.1 km/h 9.3 km/h 89 % 0.0 mm
01:42 11.5 °C 10.0 °C 1009.0 hPa SSW 4.7 km/h 11.6 km/h 89 % 0.0 mm
01:47 11.5 °C 10.0 °C 1009.0 hPa SSW 7.9 km/h 11.6 km/h 90 % 0.0 mm
01:52 11.5 °C 10.0 °C 1009.0 hPa SSW 5.8 km/h 11.9 km/h 90 % 0.0 mm
02:02 11.5 °C 10.0 °C 1009.0 hPa South 19.1 km/h 19.1 km/h 90 % 0.0 mm
02:12 11.6 °C 10.0 °C 1007.0 hPa SSW 17.2 km/h 20.9 km/h 90 % 0.0 mm
02:17 11.6 °C 10.0 °C 1007.0 hPa WSW 13.0 km/h 28.0 km/h 89 % 0.0 mm
02:22 11.6 °C 10.0 °C 1007.0 hPa SSW 17.2 km/h 28.0 km/h 89 % 0.0 mm
02:27 11.6 °C 10.0 °C 1007.0 hPa SW 16.3 km/h 27.7 km/h 89 % 0.0 mm
02:32 11.6 °C 10.0 °C 1007.0 hPa SSW 14.0 km/h 27.7 km/h 89 % 0.0 mm
02:43 11.6 °C 10.0 °C 1007.0 hPa SSW 12.6 km/h 21.9 km/h 89 % 0.0 mm
02:48 11.6 °C 10.0 °C 1007.0 hPa SW 10.1 km/h 17.7 km/h 89 % 0.0 mm
02:53 11.6 °C 10.0 °C 1007.0 hPa South 14.0 km/h 21.2 km/h 89 % 0.0 mm
02:58 11.6 °C 10.0 °C 1007.0 hPa WSW 1.4 km/h 21.2 km/h 89 % 0.0 mm
03:13 11.6 °C 10.0 °C 1007.0 hPa SSW 3.2 km/h 16.3 km/h 90 % 0.0 mm
03:18 11.6 °C 10.0 °C 1007.0 hPa South 11.9 km/h 16.3 km/h 90 % 0.0 mm
03:33 11.5 °C 10.0 °C 1007.0 hPa SSW 14.0 km/h 14.0 km/h 90 % 0.0 mm
03:38 11.5 °C 10.0 °C 1007.0 hPa SW 9.3 km/h 20.9 km/h 90 % 0.0 mm
03:43 11.6 °C 10.0 °C 1007.0 hPa SSW 10.1 km/h 20.9 km/h 90 % 0.0 mm
03:48 11.6 °C 10.0 °C 1007.0 hPa SSW 16.9 km/h 21.2 km/h 90 % 0.0 mm
03:53 11.6 °C 10.0 °C 1007.0 hPa WSW 11.9 km/h 21.2 km/h 90 % 0.0 mm
03:58 11.5 °C 10.0 °C 1007.0 hPa SW 16.3 km/h 19.8 km/h 90 % 0.0 mm
04:03 11.5 °C 10.0 °C 1007.0 hPa SW 9.0 km/h 17.7 km/h 90 % 0.0 mm
04:08 11.5 °C 10.0 °C 1007.0 hPa SSW 19.5 km/h 21.2 km/h 90 % 0.0 mm
04:13 11.6 °C 10.0 °C 1007.0 hPa SSW 17.2 km/h 24.8 km/h 90 % 0.0 mm
04:19 11.6 °C 10.0 °C 1007.0 hPa WSW 13.7 km/h 24.8 km/h 90 % 0.0 mm
04:25 11.6 °C 10.0 °C 1007.0 hPa SW 13.7 km/h 21.2 km/h 90 % 0.0 mm
04:30 11.5 °C 10.0 °C 1007.0 hPa SSW 15.8 km/h 20.6 km/h 90 % 0.0 mm
04:35 11.5 °C 10.0 °C 1007.0 hPa SSW 19.5 km/h 20.1 km/h 90 % 0.0 mm
04:41 11.5 °C 10.0 °C 1007.0 hPa South 12.2 km/h 20.1 km/h 90 % 0.0 mm
04:46 11.4 °C 10.0 °C 1007.0 hPa SSW 20.6 km/h 23.3 km/h 90 % 0.0 mm
04:51 11.4 °C 10.0 °C 1007.0 hPa SW 14.0 km/h 23.3 km/h 90 % 0.0 mm
04:56 11.4 °C 10.0 °C 1006.0 hPa SSW 13.0 km/h 23.0 km/h 90 % 0.0 mm
05:01 11.3 °C 10.0 °C 1006.0 hPa South 16.3 km/h 20.1 km/h 90 % 0.0 mm
05:06 11.3 °C 10.0 °C 1006.0 hPa SSW 12.2 km/h 19.5 km/h 90 % 0.0 mm
05:11 11.3 °C 10.0 °C 1007.0 hPa SSW 9.7 km/h 24.5 km/h 91 % 0.0 mm
05:16 11.4 °C 10.0 °C 1007.0 hPa SW 11.1 km/h 24.5 km/h 91 % 0.0 mm
05:21 11.3 °C 10.0 °C 1007.0 hPa SW 15.4 km/h 20.1 km/h 91 % 0.0 mm
05:26 11.3 °C 10.0 °C 1007.0 hPa SW 18.0 km/h 18.0 km/h 91 % 0.0 mm
05:32 11.3 °C 10.0 °C 1007.0 hPa WSW 10.1 km/h 20.9 km/h 91 % 0.0 mm
05:37 11.3 °C 10.0 °C 1007.0 hPa SSW 10.5 km/h 20.9 km/h 91 % 0.0 mm
05:42 11.3 °C 10.0 °C 1006.0 hPa SSW 15.1 km/h 20.9 km/h 91 % 0.0 mm
05:47 11.2 °C 10.0 °C 1006.0 hPa South 9.3 km/h 17.7 km/h 91 % 0.0 mm
05:52 11.1 °C 10.0 °C 1006.0 hPa SSW 13.0 km/h 16.3 km/h 91 % 0.0 mm
06:02 11.0 °C 10.0 °C 1006.0 hPa SSW 12.6 km/h 19.5 km/h 92 % 0.0 mm
06:07 11.0 °C 10.0 °C 1006.0 hPa SSW 16.3 km/h 19.5 km/h 92 % 0.0 mm
06:12 10.9 °C 10.0 °C 1007.0 hPa SSW 14.8 km/h 17.2 km/h 93 % 0.0 mm
06:17 10.9 °C 10.0 °C 1007.0 hPa SW 10.1 km/h 18.0 km/h 93 % 0.0 mm
06:22 10.9 °C 10.0 °C 1007.0 hPa South 9.0 km/h 18.0 km/h 93 % 0.0 mm
06:27 11.0 °C 10.0 °C 1006.0 hPa SSW 9.0 km/h 15.4 km/h 93 % 0.0 mm
06:32 11.0 °C 10.0 °C 1006.0 hPa South 9.0 km/h 17.2 km/h 93 % 0.0 mm
06:37 11.0 °C 10.0 °C 1006.0 hPa South 9.3 km/h 17.2 km/h 94 % 0.0 mm
06:42 11.0 °C 10.0 °C 1006.0 hPa South 6.1 km/h 16.3 km/h 94 % 0.0 mm
06:47 11.0 °C 10.0 °C 1006.0 hPa SW 11.9 km/h 17.7 km/h 94 % 0.0 mm
06:52 11.0 °C 10.0 °C 1006.0 hPa South 7.9 km/h 19.8 km/h 94 % 0.0 mm
06:57 11.0 °C 10.0 °C 1006.0 hPa SSW 10.5 km/h 19.8 km/h 94 % 0.0 mm
07:03 11.0 °C 10.0 °C 1006.0 hPa SSW 19.1 km/h 20.1 km/h 94 % 0.0 mm
07:13 11.1 °C 10.0 °C 1006.0 hPa SSW 13.0 km/h 20.1 km/h 94 % 0.0 mm
07:18 11.1 °C 10.0 °C 1006.0 hPa SSW 16.3 km/h 16.6 km/h 94 % 0.0 mm
07:28 11.1 °C 10.0 °C 1007.0 hPa SSW 13.0 km/h 16.9 km/h 94 % 0.0 mm
07:38 11.1 °C 10.0 °C 1007.0 hPa SW 9.0 km/h 19.8 km/h 94 % 0.0 mm
07:53 10.8 °C 10.0 °C 1007.0 hPa South 9.3 km/h 19.8 km/h 94 % 0.0 mm
07:58 10.7 °C 10.0 °C 1006.0 hPa SW 7.9 km/h 19.8 km/h 94 % 0.0 mm
08:03 10.6 °C 10.0 °C 1006.0 hPa South 10.1 km/h 20.9 km/h 94 % 0.0 mm
08:13 10.4 °C 9.0 °C 1006.0 hPa SSW 13.7 km/h 19.5 km/h 94 % 0.0 mm
08:18 10.4 °C 10.0 °C 1006.0 hPa SSW 13.0 km/h 23.8 km/h 95 % 0.0 mm
08:23 10.4 °C 10.0 °C 1006.0 hPa SSW 17.7 km/h 23.8 km/h 95 % 0.0 mm
08:28 10.3 °C 10.0 °C 1006.0 hPa WSW 12.2 km/h 20.9 km/h 95 % 0.0 mm
08:33 10.3 °C 10.0 °C 1006.0 hPa SW 13.7 km/h 20.9 km/h 95 % 0.0 mm
08:39 10.3 °C 10.0 °C 1006.0 hPa WSW 13.0 km/h 22.7 km/h 95 % 0.0 mm
08:44 10.3 °C 10.0 °C 1006.0 hPa SSW 16.6 km/h 22.7 km/h 95 % 0.0 mm
08:54 10.2 °C 10.0 °C 1006.0 hPa South 10.8 km/h 17.2 km/h 95 % 0.0 mm
09:04 10.2 °C 10.0 °C 1007.0 hPa SSW 9.7 km/h 22.4 km/h 95 % 0.0 mm
09:09 10.2 °C 10.0 °C 1007.0 hPa South 13.7 km/h 22.4 km/h 95 % 0.0 mm
09:14 10.3 °C 10.0 °C 1007.0 hPa South 9.7 km/h 17.7 km/h 95 % 0.0 mm
09:19 10.4 °C 10.0 °C 1007.0 hPa SSW 13.0 km/h 20.9 km/h 95 % 0.0 mm
09:24 10.4 °C 10.0 °C 1007.0 hPa SSW 8.7 km/h 20.9 km/h 95 % 0.0 mm
09:26 10.4 °C 10.0 °C 1007.0 hPa SSW 8.7 km/h 19.5 km/h 95 % 0.0 mm
09:31 10.5 °C 10.0 °C 1007.0 hPa SSW 13.7 km/h 19.8 km/h 95 % 0.0 mm
09:36 10.6 °C 10.0 °C 1007.0 hPa SSW 13.0 km/h 19.8 km/h 95 % 0.0 mm
09:51 10.7 °C 10.0 °C 1007.0 hPa SSW 15.4 km/h 23.8 km/h 94 % 0.0 mm
09:56 10.7 °C 10.0 °C 1006.0 hPa SE 9.3 km/h 23.8 km/h 94 % 0.0 mm
10:06 11.1 °C 10.0 °C 1006.0 hPa SSW 16.6 km/h 21.2 km/h 93 % 0.0 mm
10:11 11.1 °C 10.0 °C 1006.0 hPa SSW 19.5 km/h 22.4 km/h 92 % 0.0 mm
10:22 11.3 °C 10.0 °C 1006.0 hPa South 11.9 km/h 22.4 km/h 91 % 0.0 mm
10:27 11.5 °C 10.0 °C 1006.0 hPa South 17.2 km/h 20.1 km/h 91 % 0.0 mm
10:32 11.8 °C 10.0 °C 1006.0 hPa WSW 10.1 km/h 20.6 km/h 90 % 0.0 mm
10:37 11.8 °C 10.0 °C 1006.0 hPa South 16.9 km/h 20.9 km/h 89 % 0.0 mm
10:47 12.1 °C 10.0 °C 1006.0 hPa SW 9.7 km/h 23.3 km/h 87 % 0.0 mm
10:52 12.2 °C 10.0 °C 1006.0 hPa South 17.2 km/h 21.6 km/h 87 % 0.0 mm
10:57 12.2 °C 10.0 °C 1006.0 hPa SSW 13.7 km/h 21.2 km/h 87 % 0.0 mm
11:02 12.2 °C 10.0 °C 1006.0 hPa SSW 11.9 km/h 21.2 km/h 87 % 0.0 mm
11:07 12.2 °C 10.0 °C 1006.0 hPa South 21.2 km/h 22.7 km/h 87 % 0.0 mm
11:12 12.2 °C 10.0 °C 1006.0 hPa SW 19.8 km/h 24.5 km/h 87 % 0.0 mm
11:17 12.2 °C 10.0 °C 1006.0 hPa SSW 23.8 km/h 24.5 km/h 87 % 0.0 mm
11:22 12.2 °C 10.0 °C 1006.0 hPa South 13.7 km/h 24.5 km/h 87 % 0.0 mm
11:27 12.2 °C 10.0 °C 1006.0 hPa SSW 15.8 km/h 24.5 km/h 87 % 0.0 mm
11:32 12.2 °C 10.0 °C 1006.0 hPa South 20.1 km/h 24.8 km/h 87 % 0.0 mm
11:38 12.2 °C 10.0 °C 1006.0 hPa SSE 23.3 km/h 25.3 km/h 87 % 0.0 mm
11:48 12.2 °C 10.0 °C 1005.0 hPa South 19.8 km/h 25.6 km/h 87 % 0.0 mm
11:53 12.6 °C 10.0 °C 1005.0 hPa SSW 24.5 km/h 25.6 km/h 83 % 0.0 mm
12:03 12.7 °C 10.0 °C 1005.0 hPa South 12.6 km/h 25.6 km/h 83 % 0.0 mm
12:04 12.7 °C 10.0 °C 1005.0 hPa SSW 19.1 km/h 25.6 km/h 83 % 0.0 mm
12:14 12.9 °C 10.0 °C 1005.0 hPa SSW 20.6 km/h 28.8 km/h 82 % 0.0 mm
12:19 12.8 °C 10.0 °C 1005.0 hPa South 9.7 km/h 25.9 km/h 82 % 0.0 mm
12:24 13.0 °C 10.0 °C 1005.0 hPa South 16.3 km/h 23.3 km/h 81 % 0.0 mm
12:29 13.0 °C 10.0 °C 1005.0 hPa South 13.7 km/h 23.3 km/h 81 % 0.0 mm
12:34 13.0 °C 10.0 °C 1005.0 hPa South 16.9 km/h 23.3 km/h 81 % 0.0 mm
12:39 13.2 °C 10.0 °C 1005.0 hPa South 16.6 km/h 21.2 km/h 80 % 0.0 mm
12:44 13.4 °C 10.0 °C 1005.0 hPa South 16.3 km/h 21.2 km/h 80 % 0.0 mm
12:49 13.4 °C 10.0 °C 1005.0 hPa SSW 17.2 km/h 19.8 km/h 80 % 0.0 mm
12:54 13.4 °C 10.0 °C 1005.0 hPa South 13.0 km/h 19.5 km/h 80 % 0.0 mm
12:59 13.8 °C 10.0 °C 1005.0 hPa South 9.0 km/h 17.2 km/h 79 % 0.0 mm
13:04 14.0 °C 10.0 °C 1005.0 hPa South 7.2 km/h 17.2 km/h 78 % 0.0 mm
13:14 14.4 °C 11.0 °C 1005.0 hPa SSW 7.9 km/h 15.8 km/h 77 % 0.0 mm
13:19 14.4 °C 10.0 °C 1005.0 hPa SSW 14.3 km/h 21.6 km/h 73 % 0.0 mm
13:24 14.5 °C 10.0 °C 1005.0 hPa SSW 6.4 km/h 21.6 km/h 73 % 0.0 mm
13:29 14.6 °C 10.0 °C 1003.9 hPa SSW 15.4 km/h 16.9 km/h 72 % 0.0 mm
13:40 14.7 °C 9.0 °C 1003.9 hPa SSW 14.3 km/h 21.6 km/h 69 % 0.0 mm
13:45 14.7 °C 9.0 °C 1003.9 hPa SSW 17.7 km/h 21.6 km/h 69 % 0.0 mm
13:50 14.7 °C 9.0 °C 1003.9 hPa SW 22.7 km/h 22.7 km/h 68 % 0.0 mm
14:00 14.8 °C 9.0 °C 1002.9 hPa SSE 6.4 km/h 22.7 km/h 68 % 0.0 mm
14:05 14.9 °C 9.0 °C 1002.9 hPa SSW 9.7 km/h 17.2 km/h 67 % 0.0 mm
14:10 14.9 °C 9.0 °C 1002.9 hPa SSE 11.1 km/h 17.2 km/h 67 % 0.0 mm
14:15 14.8 °C 9.0 °C 1002.9 hPa SSW 10.5 km/h 17.2 km/h 68 % 0.0 mm
14:20 14.8 °C 9.0 °C 1002.9 hPa South 10.5 km/h 20.6 km/h 67 % 0.0 mm
14:25 14.7 °C 9.0 °C 1002.9 hPa SSW 15.8 km/h 20.6 km/h 66 % 0.0 mm
14:30 14.7 °C 9.0 °C 1002.9 hPa SSW 19.5 km/h 19.5 km/h 68 % 0.0 mm
14:35 14.7 °C 9.0 °C 1002.9 hPa SSW 13.7 km/h 19.5 km/h 68 % 0.0 mm
14:40 14.7 °C 9.0 °C 1002.9 hPa South 14.8 km/h 19.5 km/h 68 % 0.0 mm
14:45 14.7 °C 9.0 °C 1002.9 hPa South 11.9 km/h 20.1 km/h 68 % 0.0 mm
15:00 14.4 °C 9.0 °C 1002.9 hPa South 16.6 km/h 23.0 km/h 68 % 0.0 mm
15:05 14.3 °C 9.0 °C 1002.9 hPa South 13.7 km/h 19.5 km/h 68 % 0.0 mm
15:10 14.2 °C 9.0 °C 1002.9 hPa South 16.3 km/h 19.1 km/h 69 % 0.0 mm
15:15 14.2 °C 9.0 °C 1002.9 hPa South 14.0 km/h 16.6 km/h 69 % 0.0 mm
15:20 14.0 °C 9.0 °C 1002.9 hPa South 14.3 km/h 26.2 km/h 68 % 0.0 mm
15:25 14.0 °C 9.0 °C 1002.9 hPa South 10.5 km/h 26.2 km/h 69 % 0.0 mm
15:31 13.9 °C 9.0 °C 1002.9 hPa South 16.6 km/h 19.5 km/h 70 % 0.0 mm
15:36 13.7 °C 9.0 °C 1002.9 hPa SSW 20.1 km/h 20.1 km/h 70 % 0.0 mm
15:51 13.5 °C 9.0 °C 1001.9 hPa SSE 15.4 km/h 16.6 km/h 71 % 0.0 mm
15:56 13.4 °C 9.0 °C 1001.9 hPa South 16.9 km/h 17.2 km/h 71 % 0.0 mm
16:01 13.2 °C 9.0 °C 1001.9 hPa SSW 14.3 km/h 18.0 km/h 71 % 0.0 mm
16:06 13.1 °C 8.0 °C 1001.9 hPa South 16.3 km/h 21.2 km/h 71 % 0.0 mm
16:11 12.8 °C 9.0 °C 1001.9 hPa SSE 10.8 km/h 21.2 km/h 72 % 0.0 mm
16:12 12.8 °C 9.0 °C 1001.9 hPa SSW 13.0 km/h 21.2 km/h 72 % 0.0 mm
16:17 12.7 °C 8.0 °C 1001.9 hPa SSW 16.6 km/h 20.1 km/h 72 % 0.0 mm
16:22 12.7 °C 8.0 °C 1001.9 hPa SSW 16.6 km/h 20.1 km/h 71 % 0.0 mm
16:27 12.5 °C 8.0 °C 1001.9 hPa South 12.2 km/h 19.5 km/h 70 % 0.0 mm
16:32 12.5 °C 8.0 °C 1001.9 hPa SSE 11.9 km/h 19.8 km/h 71 % 0.0 mm
16:42 12.3 °C 8.0 °C 1000.9 hPa South 9.7 km/h 19.8 km/h 71 % 0.0 mm
16:47 12.1 °C 8.0 °C 1000.9 hPa South 12.2 km/h 16.6 km/h 72 % 0.0 mm
16:52 12.0 °C 8.0 °C 1000.9 hPa SSE 19.8 km/h 19.8 km/h 73 % 0.0 mm
16:57 12.0 °C 8.0 °C 1000.9 hPa SSW 14.3 km/h 20.6 km/h 73 % 0.0 mm
17:02 11.8 °C 7.0 °C 1000.9 hPa South 13.0 km/h 20.6 km/h 74 % 0.0 mm
17:07 11.7 °C 7.0 °C 1000.9 hPa South 16.3 km/h 17.7 km/h 74 % 0.0 mm
17:12 11.7 °C 7.0 °C 1000.9 hPa South 12.2 km/h 20.1 km/h 74 % 0.0 mm
17:17 11.5 °C 8.0 °C 1000.9 hPa South 10.1 km/h 20.1 km/h 75 % 0.0 mm
17:28 11.4 °C 7.0 °C 1000.9 hPa South 13.0 km/h 19.8 km/h 75 % 0.0 mm
17:38 11.1 °C 7.0 °C 1000.9 hPa SSW 13.7 km/h 16.9 km/h 75 % 0.0 mm
17:43 11.1 °C 7.0 °C 1000.9 hPa South 10.5 km/h 16.9 km/h 75 % 0.0 mm
17:53 10.9 °C 7.0 °C 1000.9 hPa SSW 10.1 km/h 19.1 km/h 76 % 0.0 mm
17:58 10.9 °C 7.0 °C 999.9 hPa SSW 10.5 km/h 16.6 km/h 76 % 0.0 mm
18:03 10.9 °C 7.0 °C 999.9 hPa SSW 9.7 km/h 17.2 km/h 76 % 0.0 mm
18:13 11.0 °C 7.0 °C 1000.9 hPa South 13.0 km/h 20.9 km/h 75 % 0.0 mm
18:18 10.9 °C 7.0 °C 1000.9 hPa South 11.6 km/h 20.9 km/h 75 % 0.0 mm
18:20 10.9 °C 7.0 °C 1000.9 hPa South 11.6 km/h 20.9 km/h 75 % 0.0 mm
18:26 10.9 °C 7.0 °C 999.9 hPa South 12.2 km/h 20.6 km/h 75 % 0.0 mm
18:31 10.9 °C 7.0 °C 999.9 hPa South 20.1 km/h 25.3 km/h 75 % 0.0 mm
18:36 11.0 °C 6.0 °C 999.9 hPa South 16.3 km/h 25.3 km/h 73 % 0.0 mm
18:41 11.0 °C 6.0 °C 1000.9 hPa South 13.0 km/h 24.8 km/h 73 % 0.0 mm
18:51 10.9 °C 6.0 °C 1000.9 hPa SSW 15.1 km/h 24.8 km/h 73 % 0.0 mm
19:01 10.9 °C 6.0 °C 1000.9 hPa SSW 15.8 km/h 28.0 km/h 73 % 0.0 mm
19:11 11.0 °C 6.0 °C 1000.9 hPa South 13.7 km/h 31.4 km/h 72 % 0.0 mm
19:16 11.1 °C 6.0 °C 1000.9 hPa South 22.4 km/h 31.4 km/h 71 % 0.0 mm
19:21 11.0 °C 6.0 °C 1000.9 hPa SSW 10.5 km/h 24.5 km/h 71 % 0.0 mm
19:26 11.0 °C 6.0 °C 999.9 hPa South 13.0 km/h 24.5 km/h 71 % 0.0 mm
19:31 10.9 °C 6.0 °C 999.9 hPa SSW 19.8 km/h 28.0 km/h 72 % 0.0 mm
19:41 10.9 °C 6.0 °C 998.9 hPa South 20.6 km/h 24.5 km/h 72 % 0.0 mm
19:46 10.8 °C 6.0 °C 998.9 hPa South 12.6 km/h 24.5 km/h 73 % 0.0 mm
19:56 10.8 °C 6.0 °C 998.9 hPa SSW 27.4 km/h 27.4 km/h 73 % 0.0 mm
20:01 10.9 °C 6.0 °C 998.9 hPa South 18.3 km/h 27.4 km/h 72 % 0.0 mm
20:06 10.9 °C 6.0 °C 998.9 hPa South 20.1 km/h 28.5 km/h 72 % 0.0 mm
20:16 10.8 °C 6.0 °C 998.9 hPa South 11.1 km/h 27.4 km/h 72 % 0.0 mm
20:22 10.9 °C 6.0 °C 998.9 hPa SW 9.0 km/h 27.4 km/h 72 % 0.0 mm
20:26 10.8 °C 6.0 °C 998.9 hPa South 21.2 km/h 27.4 km/h 72 % 0.0 mm
20:32 10.7 °C 6.0 °C 998.9 hPa SSW 24.8 km/h 24.8 km/h 72 % 0.0 mm
20:37 10.7 °C 6.0 °C 998.9 hPa SSW 12.6 km/h 24.8 km/h 73 % 0.0 mm
20:42 10.7 °C 6.0 °C 998.9 hPa SSW 17.2 km/h 23.8 km/h 73 % 0.0 mm
20:47 10.8 °C 6.0 °C 998.9 hPa SSW 20.6 km/h 21.2 km/h 72 % 0.0 mm
20:52 10.8 °C 6.0 °C 998.9 hPa SSW 13.0 km/h 27.0 km/h 72 % 0.0 mm
21:07 10.8 °C 6.0 °C 998.9 hPa South 9.7 km/h 20.9 km/h 72 % 0.0 mm
21:12 10.7 °C 6.0 °C 998.9 hPa SSW 19.8 km/h 20.9 km/h 72 % 0.0 mm
21:17 10.7 °C 6.0 °C 998.9 hPa SSW 10.5 km/h 21.6 km/h 72 % 0.0 mm
21:22 10.7 °C 6.0 °C 998.9 hPa SSW 17.7 km/h 21.6 km/h 72 % 0.0 mm
21:27 10.7 °C 6.0 °C 998.9 hPa South 21.2 km/h 21.2 km/h 72 % 0.0 mm
21:32 10.8 °C 6.0 °C 998.9 hPa SW 11.9 km/h 28.0 km/h 72 % 0.0 mm
21:42 10.9 °C 6.0 °C 998.9 hPa SSW 16.3 km/h 27.0 km/h 71 % 0.0 mm
21:47 10.9 °C 6.0 °C 998.9 hPa SSW 17.7 km/h 27.4 km/h 71 % 0.0 mm
21:52 10.9 °C 6.0 °C 998.9 hPa South 17.7 km/h 27.4 km/h 71 % 0.0 mm
21:57 10.9 °C 6.0 °C 998.9 hPa South 21.2 km/h 25.9 km/h 71 % 0.0 mm
22:02 10.9 °C 6.0 °C 998.9 hPa South 12.2 km/h 37.5 km/h 71 % 0.0 mm
22:12 10.7 °C 6.0 °C 997.9 hPa South 8.7 km/h 24.8 km/h 72 % 0.0 mm
22:22 10.6 °C 6.0 °C 997.9 hPa South 12.2 km/h 21.9 km/h 72 % 0.0 mm
22:27 10.6 °C 6.0 °C 998.9 hPa South 16.9 km/h 21.9 km/h 73 % 0.0 mm
22:32 10.6 °C 6.0 °C 998.9 hPa SSW 17.7 km/h 23.8 km/h 73 % 0.0 mm
22:37 10.6 °C 6.0 °C 998.9 hPa South 17.2 km/h 23.8 km/h 73 % 0.0 mm
22:47 10.5 °C 6.0 °C 998.9 hPa South 19.8 km/h 20.6 km/h 73 % 0.0 mm
22:52 10.6 °C 6.0 °C 998.9 hPa SSE 14.0 km/h 19.8 km/h 73 % 0.0 mm
23:11 10.7 °C 6.0 °C 998.9 hPa South 5.8 km/h 16.3 km/h 73 % 0.0 mm
23:16 10.7 °C 6.0 °C 998.9 hPa South 14.0 km/h 19.5 km/h 73 % 0.0 mm
23:21 10.8 °C 6.0 °C 998.9 hPa South 14.0 km/h 20.6 km/h 73 % 0.0 mm
23:41 11.0 °C 6.0 °C 997.9 hPa SSW 17.7 km/h 20.9 km/h 73 % 0.0 mm
23:46 11.1 °C 6.0 °C 997.9 hPa SSW 11.9 km/h 19.8 km/h 72 % 0.0 mm
23:51 11.1 °C 6.0 °C 997.9 hPa South 12.6 km/h 19.5 km/h 72 % 0.0 mm
23:56 11.2 °C 7.0 °C 997.9 hPa SW 11.6 km/h 20.9 km/h 72 % 0.0 mm
Le Gheer Warneton
Courtoisie de Weather Underground - 2 mb

Mise a jour : 18/12/2017 03:55:18
Généré par Cumulus 1.9.4 (1099)